Location: Unspecified
(0.0000°N, 0.0000°E)
Time: 16:58:25
(UTC+00:00)

deb Kosmos-1275 - Pass Details

Date: 11 March 2026
Orbit: 897 x 929 km, 83.0° (Epoch: 18 April)

Event Time Altitude Azimuth Distance (km) Brightness Sun altitude
Rises 19:43:13 0° 170° (S) 3,531 ? -23.3°
Reaches altitude 10° 19:45:48 10° 163° (SSE) 2,592 ? -23.9°
Enters shadow 19:47:29 19° 155° (SSE) 2,025 ? -24.3°
